FW2816 Weather Reports


time (UTC)temp
C
wind
direction
speed
KPH
gust
KPH
rain 1hr
cm
rain 24hr
cm
rain mn
cm
humidity
%
barometer
mb
20260507164050 13 180 16.1 27.4 0.03 1.02 1.02 85 1005.7
20260507163540 13 180 9.7 17.7 0.03 1.02 1.02 89 1006.1
20260507163031 13 180 6.4 17.7 0.05 1.02 1.02 92 1005.9
20260507162520 13 135 12.9 17.7 0.05 1.02 1.02 93 1005.8
20260507162013 12 158 11.3 14.5 0.13 1.02 1.02 92 1006.7
20260507161500 12 180 6.4 14.5 0.15 1.02 1.02 92 1007.5
20260507160950 11 225 6.4 11.3 0.18 1.02 1.02 93 1008.2
20260507160439 11 23 1.6 11.3 0.23 1.02 1.02 93 1008.9
20260507155929 11 225 6.4 11.3 0.28 1.02 1.02 92 1009.0
20260507155422 11 180 4.8 6.4 0.28 0.99 0.99 92 1009.5
20260507154909 11 315 1.6 8.0 0.28 0.99 0.99 92 1010.6
20260507154359 11 315 3.2 12.9 0.28 0.99 0.99 91 1011.0
20260507153849 11 0 3.2 12.9 0.28 0.99 0.99 90 1010.5
20260507153338 11 180 4.8 12.9 0.28 0.99 0.99 90 1009.8
20260507152832 11 135 3.2 17.7 0.23 0.97 0.97 89 1009.4
20260507152318 11 180 9.7 17.7 0.20 0.94 0.94 89 1009.4
20260507151808 12 180 6.4 17.7 0.18 0.89 0.89 87 1009.3
20260507151257 12 180 9.7 19.3 0.13 0.84 0.86 86 1008.8
20260507150748 12 180 8.0 19.3 0.10 0.81 0.81 85 1008.7
20260507150241 12 158 12.9 17.7 0.05 0.79 0.79 83 1008.3
20260507150228 12 158 3.2 4.8 0.00 0.71 0.71 82 1010.2
20260507145218 12 45 3.2 17.7 0.00 0.71 0.71 82 1010.8
20260507144707 12 315 3.2 24.1 0.00 0.71 0.71 82 1010.2
20260507144156 13 0 6.4 24.1 0.00 0.71 0.71 81 1009.4
20260507143650 13 315 12.9 24.1 0.00 0.71 0.71 80 1009.1
20260507143136 13 315 12.9 32.2 0.00 0.71 0.71 79 1009.5
20260507143124 13 203 17.7 33.8 0.00 0.71 0.71 78 1008.0
20260507142729 13 180 16.1 32.2 0.00 0.71 0.71 78 1008.4
20260507141606 13 180 20.9 33.8 0.00 0.71 0.71 77 1007.2
20260507141600 13 180 20.9 37.0 0.05 0.71 0.71 76 1007.6
20260507140546 14 180 22.5 37.0 0.10 0.71 0.71 76 1007.5
20260507140536 14 180 27.4 43.5 0.10 0.71 0.71 76 1007.1
20260507135526 14 180 25.7 43.5 0.10 0.71 0.71 74 1007.4
20260507135016 14 180 19.3 35.4 0.10 0.71 0.71 74 1007.4
20260507134509 14 180 24.1 38.6 0.10 0.71 0.71 74 1008.0
20260507133955 14 135 24.1 38.6 0.10 0.71 0.71 74 1008.2
20260507133445 15 180 27.4 37.0 0.10 0.71 0.71 75 1008.5
20260507132935 15 180 19.3 32.2 0.10 0.71 0.71 75 1008.8
20260507132425 15 225 12.9 25.7 0.10 0.71 0.71 75 1008.8
20260507132419 14 135 12.9 27.4 0.10 0.71 0.71 75 1009.9
20260507131405 14 135 4.8 27.4 0.05 0.69 0.69 72 1009.8
20260507130854 15 180 17.7 24.1 0.03 0.66 0.66 65 1008.3
20260507130357 15 225 6.4 24.1 0.00 0.64 0.64 62 1011.3
20260507125834 15 270 11.3 35.4 0.00 0.64 0.64 62 1011.6
20260507125827 16 158 11.3 40.2 0.00 0.64 0.64 61 1008.4
20260507124814 16 225 16.1 40.2 0.00 0.64 0.64 61 1006.7
20260507124304 16 180 22.5 41.8 0.00 0.64 0.64 60 1005.6
20260507123753 16 158 24.1 41.8 0.00 0.64 0.64 61 1005.0
20260507123244 16 180 17.7 38.6 0.00 0.64 0.64 60 1005.1
20260507122736 16 180 20.9 38.6 0.00 0.64 0.64 59 1005.5
20260507122223 16 158 24.1 38.6 0.00 0.64 0.64 59 1005.6
20260507122214 16 180 32.2 38.6 0.00 0.64 0.64 60 1005.7
20260507121203 16 225 27.4 35.4 0.00 0.64 0.64 64 1005.4
20260507120653 16 225 24.1 35.4 0.00 0.64 0.64 67 1005.1
20260507120159 16 180 17.7 35.4 0.00 0.64 0.64 67 1005.2
20260507115632 16 248 22.5 30.6 0.00 0.64 0.64 69 1004.8
20260507115122 16 225 17.7 27.4 0.00 0.64 0.64 70 1004.7
20260507114613 16 180 12.9 37.0 0.00 0.64 0.64 70 1004.5
20260507114102 16 225 16.1 37.0 0.00 0.64 0.64 71 1004.2
20260507113555 16 158 24.1 37.0 0.00 0.64 0.64 72 1004.2
20260507113042 16 315 19.3 37.0 0.00 0.64 0.64 73 1004.3
20260507112531 16 225 19.3 37.0 0.00 0.64 0.64 77 1004.1
20260507112021 16 180 25.7 37.0 0.00 0.64 0.64 79 1003.8
20260507111511 16 180 17.7 33.8 0.00 0.64 0.64 78 1004.0
20260507111017 16 180 19.3 37.0 0.00 0.64 0.64 77 1003.6
20260507110451 16 180 24.1 37.0 0.00 0.64 0.64 77 1003.2
20260507105941 16 180 24.1 37.0 0.00 0.64 0.64 76 1003.0
20260507105431 17 180 20.9 37.0 0.00 0.64 0.64 76 1002.7
20260507104920 17 180 20.9 37.0 0.00 0.64 0.64 77 1002.6
20260507104413 17 180 25.7 41.8 0.00 0.64 0.64 78 1002.7
20260507103903 17 180 33.8 41.8 0.00 0.64 0.64 80 1002.5
20260507103350 17 180 30.6 40.2 0.00 0.64 0.64 83 1002.4
20260507103340 17 180 25.7 41.8 0.00 0.64 0.64 84 1002.2
20260507102330 17 180 32.2 41.8 0.00 0.64 0.64 87 1002.3
20260507101823 18 225 24.1 43.5 0.00 0.64 0.64 89 1002.3
20260507101309 18 180 25.7 43.5 0.00 0.64 0.64 91 1002.4
20260507100800 18 180 25.7 35.4 0.00 0.64 0.64 92 1002.4
20260507100249 18 248 29.0 35.4 0.00 0.64 0.64 92 1002.4
20260507100239 18 180 19.3 35.4 0.00 0.64 0.64 92 1002.2
20260507095232 18 180 19.3 48.3 0.00 0.64 0.64 91 1002.3
20260507094719 18 180 30.6 53.1 0.00 0.64 0.64 91 1002.3
20260507094208 18 180 37.0 53.1 0.00 0.64 0.64 91 1002.0
20260507093658 18 180 25.7 37.0 0.00 0.64 0.64 91 1002.4
20260507093649 18 225 22.5 41.8 0.00 0.64 0.64 91 1002.5
20260507092642 18 180 19.3 41.8 0.03 0.64 0.64 92 1002.7
20260507092128 18 135 17.7 30.6 0.03 0.64 0.64 93 1002.6
20260507092120 18 180 20.9 29.0 0.03 0.64 0.64 93 1002.6
20260507091107 18 180 17.7 29.0 0.03 0.64 0.64 94 1002.5
20260507091058 18 225 14.5 27.4 0.05 0.64 0.64 94 1002.3
20260507090103 18 180 16.1 27.4 0.15 0.64 0.64 94 1002.1
20260507085537 18 180 12.9 24.1 0.28 0.64 0.64 95 1002.0
20260507085027 18 180 12.9 27.4 0.36 0.64 0.64 95 1002.1
20260507084516 18 180 12.9 27.4 0.46 0.64 0.64 95 1001.8
20260507084008 18 203 17.7 25.7 0.46 0.64 0.64 96 1001.8
20260507083545 18 203 11.3 24.1 0.53 0.64 0.64 96 1001.6
20260507083500 18 135 12.9 24.1 0.51 0.64 0.64 96 1002.0
20260507083439 18 180 14.5 22.5 0.51 0.61 0.61 96 1002.0
20260507081926 18 180 12.9 17.7 0.51 0.61 0.61 95 1002.0
20260507081417 18 180 12.9 22.5 0.51 0.61 0.61 95 1002.3
20260507081411 18 180 11.3 27.4 0.51 0.61 0.61 95 1002.1
20260507080408 18 180 12.9 33.8 0.46 0.53 0.53 94 1002.1
20260507080347 18 225 22.5 33.8 0.38 0.48 0.48 94 1002.1
20260507075336 18 135 8.0 27.4 0.20 0.30 0.33 92 1001.5
20260507075327 19 203 12.9 17.7 0.20 0.23 0.23 91 1001.3
20260507074318 19 225 6.4 37.0 0.18 0.18 0.18 91 1001.6
20260507073805 19 225 12.9 37.0 0.13 0.13 0.13 89 1001.2
20260507073757 20 180 8.0 27.4 0.10 0.10 0.10 87 1001.2
20260507072744 20 203 16.1 27.4 0.10 0.10 0.10 87 1001.2
20260507072234 20 180 14.5 29.0 0.10 0.10 0.10 87 1001.1
20260507072228 20 180 19.3 29.0 0.10 0.10 0.10 88 1001.0
20260507071215 20 180 12.9 24.1 0.10 0.10 0.10 88 1000.8
20260507071205 20 180 14.5 20.9 0.10 0.10 0.10 89 1001.1
20260507070155 20 180 11.3 19.3 0.10 0.10 0.10 88 1001.0
20260507065652 20 180 9.7 24.1 0.10 0.10 0.10 85 1000.9
20260507065137 21 158 14.5 24.1 0.05 0.05 0.10 80 1001.2
20260507064624 22 315 12.9 22.5 0.00 0.00 0.00 79 1001.0
20260507064113 22 158 11.3 24.1 0.00 0.00 0.00 84 1000.8
20260507064056 22 180 11.3 24.1 0.00 0.00 0.00 91 1000.9
20260507063701 22 180 14.5 24.1 0.00 0.00 0.00 89 1000.9
20260507063047 21 180 12.9 17.7 0.00 0.00 0.00 93 1000.8
20260507062534 21 135 0.0 3.2 0.00 0.00 0.00 93 1000.4
20260507061522 21 180 3.2 3.2 0.00 0.00 0.00 93 1000.4
20260507061012 21 180 0.0 4.8 0.00 0.00 0.00 92 1000.3
20260507060503 21 315 0.0 4.8 0.00 0.00 0.00 92 1000.3
20260507055955 21 0 3.2 3.2 0.00 0.00 0.00 92 1000.3
20260507055442 21 0 0.0 3.2 0.00 0.00 0.00 92 1000.3
20260507054932 21 315 0.0 3.2 0.00 0.00 0.00 92 1000.4
20260507054422 21 0 1.6 3.2 0.00 0.00 0.00 92 1000.5
20260507053912 21 270 0.0 0.0 0.00 0.00 0.00 92 1000.6
20260507053405 22 338 0.0 0.0 0.00 0.00 0.00 91 1000.6
20260507052851 22 0 0.0 0.0 0.00 0.00 0.00 91 1000.7
20260507052341 22 315 0.0 0.0 0.00 0.00 0.00 90 1000.8
20260507051831 22 0 0.0 0.0 0.00 0.00 0.00 90 1000.8
20260507051321 22 315 0.0 0.0 0.00 0.00 0.00 90 1000.8
20260507051314 22 0 0.0 0.0 0.00 0.00 0.00 90 1000.9
20260507050300 22 225 0.0 0.0 0.00 0.00 0.00 90 1000.8
20260507045750 22 315 0.0 3.2 0.00 0.00 0.00 90 1000.8
20260507045240 22 0 0.0 3.2 0.00 0.00 0.00 90 1000.7
20260507044730 22 90 0.0 0.0 0.00 0.00 0.00 90 1000.7
20260507044223 22 315 0.0 3.2 0.00 0.00 0.00 90 1000.6
20260507043710 22 0 0.0 3.2 0.00 0.00 0.00 90 1000.7
20260507043651 22 0 0.0 0.0 0.00 0.00 0.00 90 1000.7
20260507043257 22 45 3.2 3.2 0.00 0.00 0.00 90 1000.8
20260507042139 22 0 0.0 0.0 0.00 0.00 0.00 90 1000.7
20260507041632 22 45 0.0 3.2 0.00 0.00 0.00 90 1000.7
20260507041119 22 0 0.0 3.2 0.00 0.00 0.00 90 1000.7
20260507041109 22 23 3.2 3.2 0.00 0.00 0.00 90 1000.7
20260507040108 22 45 0.0 0.0 0.00 0.00 0.00 90 1000.9
20260507035548 22 90 0.0 0.0 0.00 0.00 0.00 90 1001.0
20260507035054 22 90 0.0 0.0 0.00 0.00 0.00 90 1001.1
20260507035030 22 90 0.0 0.0 0.00 0.00 0.00 90 1001.2
20260507034018 22 135 0.0 0.0 0.00 0.00 0.00 90 1001.3
20260507033508 22 90 0.0 0.0 0.00 0.00 0.00 90 1001.3
20260507033459 22 180 0.0 0.0 0.00 0.00 0.00 89 1001.4
20260507032452 22 180 0.0 0.0 0.00 0.00 0.00 89 1001.4
20260507031938 22 225 0.0 0.0 0.00 0.00 0.00 89 1001.4
20260507031430 22 135 0.0 0.0 0.00 0.00 0.00 89 1001.3
20260507030917 22 158 0.0 0.0 0.00 0.00 0.00 89 1001.5
20260507030407 22 113 0.0 0.0 0.00 0.00 0.00 89 1001.4
20260507025900 22 225 0.0 0.0 0.00 0.00 0.00 89 1001.6
20260507025347 22 135 0.0 0.0 0.00 0.00 0.00 89 1001.6
20260507025338 22 180 0.0 3.2 0.00 0.00 0.00 92 1001.8
20260507024327 22 180 0.0 3.2 0.00 0.00 0.00 92 1001.8
20260507024316 22 180 0.0 3.2 0.00 0.00 0.00 91 1001.6
20260507023309 22 315 0.0 3.2 0.00 0.00 0.00 92 1001.5
20260507022757 22 270 0.0 4.8 0.00 0.00 0.00 91 1001.8
20260507022246 22 315 0.0 4.8 0.00 0.00 0.00 89 1001.5
20260507022236 22 0 3.2 6.4 0.00 0.00 0.00 91 1001.4
20260507021226 23 0 3.2 6.4 0.00 0.00 0.00 91 1001.4
20260507020719 23 315 3.2 6.4 0.00 0.00 0.00 90 1001.4
20260507020206 23 338 3.2 6.4 0.00 0.00 0.00 90 1001.4
20260507015656 23 0 3.2 6.4 0.00 0.00 0.00 90 1001.3
20260507015145 23 315 0.0 8.0 0.00 0.00 0.00 90 1001.2
20260507014635 23 45 3.2 12.9 0.00 0.00 0.00 90 1001.2
20260507014128 23 0 4.8 12.9 0.00 0.00 0.00 90 1001.0
20260507013615 23 315 3.2 8.0 0.00 0.00 0.00 89 1001.0
20260507013606 23 0 3.2 11.3 0.00 0.00 0.00 89 1001.0
20260507012554 23 270 4.8 11.3 0.00 0.00 0.00 88 1001.1
20260507012044 23 0 4.8 6.4 0.00 0.00 0.00 88 1001.2
20260507011537 23 0 3.2 6.4 0.00 0.00 0.00 87 1001.1
20260507011024 23 45 3.2 6.4 0.00 0.00 0.00 87 1001.2
20260507010514 23 0 3.2 8.0 0.00 0.00 0.00 87 1001.3
20260507010004 23 0 3.2 9.7 0.00 0.00 0.00 86 1001.2
20260507005453 23 45 3.2 9.7 0.00 0.00 0.00 85 1001.2
20260507004951 23 0 4.8 9.7 0.00 0.00 0.00 85 1001.0
20260507004433 24 45 4.8 12.9 0.00 0.00 0.00 84 1001.1
20260507003923 24 0 3.2 12.9 0.00 0.00 0.00 84 1001.0
20260507003914 24 0 4.8 11.3 0.00 0.00 0.00 84 1000.9
20260507003406 24 0 6.4 12.9 0.00 0.00 0.00 84 1001.0
20260507002858 24 45 3.2 12.9 0.00 0.00 0.00 83 1000.8
20260507001842 24 0 4.8 12.9 0.00 0.00 0.00 83 1000.7
20260507001834 25 45 6.4 12.9 0.00 0.00 0.00 82 1000.7
20260507000822 25 45 6.4 16.1 0.00 0.00 0.00 82 1000.5
20260507000314 25 45 6.4 16.1 0.00 0.00 0.00 80 1000.3
20260506235806 25 45 6.4 17.7 0.00 0.00 0.00 80 1000.2
20260506235252 25 45 6.4 17.7 0.00 0.00 0.00 79 1000.2
20260506234741 25 0 11.3 17.7 0.00 0.00 0.00 79 1000.3
20260506234232 25 45 8.0 17.7 0.00 0.00 0.00 79 1000.1
20260506233728 25 45 9.7 16.1 0.00 0.00 0.00 77 1000.2
20260506233722 25 45 6.4 16.1 0.00 0.00 0.00 78 1000.2
20260506232701 25 45 11.3 14.5 0.00 0.00 0.00 77 1000.3
20260506232651 25 0 6.4 12.9 0.00 0.00 0.00 76 1000.2
20260506231641 26 0 4.8 12.9 0.00 0.00 0.00 75 1000.3
20260506231159 26 0 6.4 16.1 0.00 0.00 0.00 73 1000.4
20260506230623 26 68 12.9 17.7 0.00 0.00 0.00 73 1000.4
20260506230111 26 45 6.4 19.3 0.00 0.00 0.00 73 1000.3
20260506225601 26 45 9.7 19.3 0.00 0.00 0.00 73 1000.3
20260506225049 26 0 8.0 17.7 0.00 0.00 0.00 74 1000.4
20260506224540 26 315 8.0 17.7 0.00 0.00 0.00 74 1000.4
20260506224033 26 45 6.4 17.7 0.00 0.00 0.00 75 1000.5
20260506224021 26 0 6.4 16.1 0.00 0.00 0.00 75 1000.5
20260506223009 26 45 6.4 17.7 0.00 0.00 0.00 75 1000.4
20260506222500 26 45 8.0 17.7 0.00 0.00 0.00 75 1000.4
20260506221949 26 0 9.7 19.3 0.00 0.00 0.00 75 1000.2
20260506221943 26 45 12.9 19.3 0.00 0.00 0.00 75 1000.2
20260506220929 26 45 9.7 17.7 0.00 0.00 0.00 76 1000.3
20260506220418 26 0 11.3 17.7 0.00 0.00 0.00 76 1000.4
20260506215909 26 45 8.0 12.9 0.00 0.00 0.00 75 1000.6
20260506215900 26 0 4.8 6.4 0.00 0.00 0.00 74 1000.9
20260506214852 26 23 3.2 8.0 0.00 0.00 0.00 72 1001.0
20260506214338 26 0 1.6 8.0 0.00 0.00 0.00 72 1001.1
20260506213828 27 0 3.2 8.0 0.00 0.00 0.00 71 1001.0
20260506213318 27 45 6.4 9.7 0.00 0.00 0.00 70 1000.8
20260506212807 27 0 4.8 9.7 0.00 0.00 0.00 70 1000.9
20260506212301 27 0 3.2 8.0 0.00 0.00 0.00 69 1001.0
20260506211747 27 0 3.2 8.0 0.00 0.00 0.00 68 1001.0
20260506211237 28 0 6.4 11.3 0.00 0.00 0.00 66 1001.1
20260506210728 28 0 4.8 12.9 0.00 0.00 0.00 64 1001.2
20260506210218 28 338 6.4 14.5 0.00 0.00 0.00 63 1001.4
20260506210212 30 0 8.0 16.1 0.00 0.00 0.00 61 1001.3
20260506205157 30 0 9.7 17.7 0.00 0.00 0.00 59 1001.2
20260506204647 30 315 9.7 17.7 0.00 0.00 0.00 58 1001.4
20260506204136 30 315 8.0 17.7 0.00 0.00 0.00 58 1001.4
20260506203626 30 338 9.7 19.3 0.00 0.00 0.00 58 1001.3
20260506203119 30 0 12.9 19.3 0.00 0.00 0.00 59 1001.3
20260506202606 30 338 8.0 19.3 0.00 0.00 0.00 59 1001.3
20260506202558 30 0 11.3 27.4 0.00 0.00 0.00 57 1001.3
20260506202046 31 315 12.9 27.4 0.00 0.00 0.00 55 1001.3
20260506201036 31 315 8.0 25.7 0.00 0.00 0.00 55 1001.3
20260506200528 31 315 12.9 24.1 0.00 0.00 0.00 54 1001.5
20260506200015 32 0 9.7 24.1 0.00 0.00 0.00 52 1001.4
20260506195505 32 315 6.4 20.9 0.00 0.00 0.00 53 1001.4
20260506194958 32 23 8.0 19.3 0.00 0.00 0.00 52 1001.4
20260506194445 32 0 4.8 19.3 0.00 0.00 0.00 54 1001.4
20260506193938 32 248 8.0 19.3 0.00 0.00 0.00 53 1001.5
20260506193425 32 0 11.3 17.7 0.00 0.00 0.00 52 1001.6
20260506193415 32 0 9.7 17.7 0.00 0.00 0.00 52 1001.6
20260506193032 32 315 11.3 17.7 0.00 0.00 0.00 53 1001.8
20260506191855 32 315 12.9 22.5 0.00 0.00 0.00 53 1001.6
20260506191347 32 293 9.7 22.5 0.00 0.00 0.00 53 1001.5
20260506190833 32 45 9.7 27.4 0.00 0.00 0.00 53 1001.8
20260506190824 32 90 12.9 27.4 0.00 0.00 0.00 52 1001.6
20260506185814 32 0 11.3 27.4 0.00 0.00 0.00 53 1001.6
20260506185306 31 0 6.4 29.0 0.00 0.00 0.00 55 1001.8
20260506184757 31 0 12.9 29.0 0.00 0.00 0.00 55 1001.8
20260506184243 32 0 11.3 24.1 0.00 0.00 0.00 54 1001.6
20260506183733 31 315 9.7 24.1 0.00 0.00 0.00 55 1001.9
20260506183724 32 225 12.9 24.1 0.00 0.00 0.00 53 1001.9
20260506183214 32 315 6.4 24.1 0.00 0.00 0.00 53 1001.9
20260506182206 32 0 11.3 29.0 0.00 0.00 0.00 53 1002.0
20260506181652 32 0 17.7 29.0 0.00 0.00 0.00 53 1002.2
20260506181142 32 45 12.9 22.5 0.00 0.00 0.00 54 1002.2
20260506181134 32 0 12.9 27.4 0.00 0.00 0.00 54 1002.3
20260506180122 32 0 12.9 27.4 0.00 0.00 0.00 54 1002.5
20260506175615 31 225 9.7 27.4 0.00 0.00 0.00 56 1002.5
20260506175102 31 23 9.7 24.1 0.00 0.00 0.00 55 1002.7
20260506174551 32 315 8.0 24.1 0.00 0.00 0.00 53 1002.6
20260506174042 32 270 12.9 29.0 0.00 0.00 0.00 53 1002.7
20260506173532 32 315 12.9 29.0 0.00 0.00 0.00 53 1002.8
20260506173024 32 0 14.5 27.4 0.00 0.00 0.00 52 1003.1
20260506172517 32 315 9.7 25.7 0.00 0.00 0.00 53 1003.2
20260506172001 32 315 8.0 33.8 0.00 0.00 0.00 53 1003.2
20260506171451 32 315 17.7 33.8 0.00 0.00 0.00 52 1003.2
20260506170941 32 293 9.7 24.1 0.00 0.00 0.00 53 1003.4
20260506170935 32 0 16.1 24.1 0.00 0.00 0.00 54 1003.5
20260506165920 32 0 6.4 27.4 0.00 0.00 0.00 55 1003.5
20260506165410 32 0 12.9 27.4 0.00 0.00 0.00 53 1003.6
20260506164900 31 0 12.9 27.4 0.00 0.00 0.00 55 1003.5
20260506164852 31 0 9.7 25.7 0.00 0.00 0.00 57 1003.7